| time (UTC) | temp F | wind direction | speed MPH | gust MPH | rain 1hr in | rain 24hr in | rain mn in | humidity % | barometer mb |
| 20260508135330 | 69 | 74 | 3.0 | 5.0 | 0.00 | 0.00 | 0.00 | 58 | 1022.5 |
| 20260508134826 | 68 | 90 | 5.0 | 6.0 | 0.00 | 0.00 | 0.00 | 59 | 1022.4 |
| 20260508134323 | 68 | 134 | 8.0 | 8.0 | 0.00 | 0.00 | 0.00 | 61 | 1022.3 |
| 20260508133819 | 68 | 186 | 3.0 | 4.0 | 0.00 | 0.00 | 0.00 | 65 | 1022.2 |
| 20260508133317 | 68 | 108 | 3.0 | 6.0 | 0.00 | 0.00 | 0.00 | 63 | 1022.2 |
| 20260508132814 | 67 | 148 | 2.0 | 5.0 | 0.00 | 0.00 | 0.00 | 68 | 1022.3 |
| 20260508132312 | 67 | 63 | 0.0 | 5.0 | 0.00 | 0.00 | 0.00 | 73 | 1022.2 |
| 20260508131808 | 66 | 159 | 0.0 | 5.0 | 0.00 | 0.00 | 0.00 | 72 | 1022.1 |
| 20260508131304 | 65 | 79 | 2.0 | 6.0 | 0.00 | 0.00 | 0.00 | 73 | 1021.9 |
| 20260508130800 | 65 | 81 | 2.0 | 5.0 | 0.00 | 0.00 | 0.00 | 74 | 1022.0 |
| 20260508130258 | 65 | 85 | 0.0 | 3.0 | 0.00 | 0.00 | 0.00 | 76 | 1021.6 |
| 20260508125754 | 64 | 120 | 0.0 | 6.0 | 0.00 | 0.00 | 0.00 | 75 | 1021.6 |
| 20260508125250 | 66 | 180 | 0.0 | 4.0 | 0.00 | 0.00 | 0.00 | 77 | 1021.9 |
| 20260508124749 | 66 | 155 | 0.0 | 4.0 | 0.00 | 0.00 | 0.00 | 80 | 1021.6 |
| 20260508124245 | 65 | 79 | 3.0 | 3.0 | 0.00 | 0.00 | 0.00 | 80 | 1021.6 |
| 20260508123743 | 65 | 90 | 0.0 | 4.0 | 0.00 | 0.00 | 0.00 | 79 | 1021.7 |
| 20260508123241 | 66 | 19 | 2.0 | 2.0 | 0.00 | 0.00 | 0.00 | 81 | 1021.2 |
| 20260508122737 | 65 | 99 | 0.0 | 3.0 | 0.00 | 0.00 | 0.00 | 85 | 1021.5 |
| 20260508122234 | 64 | 74 | 0.0 | 2.0 | 0.00 | 0.00 | 0.00 | 88 | 1021.5 |
| 20260508121731 | 63 | 66 | 0.0 | 0.0 | 0.00 | 0.00 | 0.00 | 92 | 1021.3 |
| 20260508121230 | 61 | 79 | 0.0 | 3.0 | 0.00 | 0.00 | 0.00 | 94 | 1021.2 |
| 20260508120727 | 61 | 90 | 0.0 | 0.0 | 0.00 | 0.00 | 0.00 | 95 | 1021.3 |
| 20260508120225 | 59 | 75 | 0.0 | 0.0 | 0.00 | 0.00 | 0.00 | 96 | 1021.0 |
| 20260508115722 | 59 | 75 | 0.0 | 0.0 | 0.00 | 0.00 | 0.00 | 97 | 1020.9 |
| 20260508115220 | 58 | 90 | 0.0 | 2.0 | 0.00 | 0.00 | 0.00 | 97 | 1020.5 |
| 20260508114716 | 57 | 77 | 1.0 | 2.0 | 0.00 | 0.00 | 0.00 | 97 | 1020.8 |
| 20260508114213 | 57 | 81 | 0.0 | 1.0 | 0.00 | 0.00 | 0.00 | 97 | 1020.8 |
| 20260508113709 | 57 | 0 | 0.0 | 0.0 | 0.00 | 0.00 | 0.00 | 97 | 1020.6 |
| 20260508113208 | 56 | 8 | 0.0 | 0.0 | 0.00 | 0.00 | 0.00 | 98 | 1020.4 |
| 20260508112703 | 56 | 57 | 0.0 | 2.0 | 0.00 | 0.00 | 0.00 | 98 | 1020.4 |
| 20260508112201 | 55 | 352 | 0.0 | 0.0 | 0.00 | 0.00 | 0.00 | 98 | 1020.4 |
| 20260508111657 | 55 | 352 | 0.0 | 0.0 | 0.00 | 0.00 | 0.00 | 97 | 1020.3 |
| 20260508111155 | 55 | 352 | 0.0 | 0.0 | 0.00 | 0.00 | 0.00 | 97 | 1020.0 |
| 20260508110652 | 55 | 8 | 0.0 | 0.0 | 0.00 | 0.00 | 0.00 | 97 | 1019.9 |
| 20260508110149 | 55 | 0 | 0.0 | 0.0 | 0.00 | 0.00 | 0.00 | 97 | 1020.1 |
| 20260508105643 | 55 | 0 | 0.0 | 1.0 | 0.00 | 0.00 | 0.00 | 97 | 1019.8 |
| 20260508105141 | 55 | 353 | 0.0 | 1.0 | 0.00 | 0.00 | 0.00 | 97 | 1020.1 |
| 20260508104638 | 55 | 352 | 0.0 | 0.0 | 0.00 | 0.00 | 0.00 | 97 | 1019.7 |
| 20260508104135 | 55 | 0 | 0.0 | 0.0 | 0.00 | 0.00 | 0.00 | 97 | 1019.7 |
| 20260508103632 | 55 | 0 | 0.0 | 0.0 | 0.00 | 0.00 | 0.00 | 97 | 1019.4 |
| 20260508103129 | 55 | 337 | 0.0 | 0.0 | 0.00 | 0.00 | 0.00 | 97 | 1019.5 |
| 20260508102626 | 55 | 0 | 0.0 | 1.0 | 0.00 | 0.00 | 0.00 | 96 | 1019.6 |
| 20260508102124 | 55 | 0 | 0.0 | 0.0 | 0.00 | 0.00 | 0.00 | 96 | 1019.4 |
| 20260508101621 | 54 | 0 | 0.0 | 0.0 | 0.00 | 0.00 | 0.00 | 96 | 1019.2 |
| 20260508101118 | 55 | 0 | 0.0 | 0.0 | 0.00 | 0.00 | 0.00 | 96 | 1019.3 |
| 20260508100616 | 55 | 0 | 0.0 | 0.0 | 0.00 | 0.00 | 0.00 | 96 | 1019.3 |
| 20260508100114 | 55 | 0 | 0.0 | 0.0 | 0.00 | 0.00 | 0.00 | 96 | 1019.2 |
| 20260508095610 | 56 | 8 | 0.0 | 0.0 | 0.00 | 0.00 | 0.00 | 95 | 1019.3 |
| 20260508095107 | 56 | 0 | 0.0 | 0.0 | 0.00 | 0.00 | 0.00 | 95 | 1019.0 |
| 20260508094604 | 56 | 0 | 0.0 | 1.0 | 0.00 | 0.00 | 0.00 | 95 | 1018.8 |
| 20260508094101 | 56 | 0 | 0.0 | 1.0 | 0.00 | 0.00 | 0.00 | 95 | 1018.9 |
| 20260508093558 | 55 | 0 | 0.0 | 0.0 | 0.00 | 0.00 | 0.00 | 95 | 1018.7 |
| 20260508093056 | 55 | 0 | 0.0 | 0.0 | 0.00 | 0.00 | 0.00 | 95 | 1018.6 |
| 20260508092553 | 56 | 0 | 0.0 | 0.0 | 0.00 | 0.00 | 0.00 | 95 | 1018.6 |
| 20260508092052 | 56 | 342 | 0.0 | 1.0 | 0.00 | 0.00 | 0.00 | 95 | 1018.6 |
| 20260508091549 | 56 | 81 | 0.0 | 0.0 | 0.00 | 0.00 | 0.00 | 95 | 1018.5 |
| 20260508091045 | 56 | 0 | 0.0 | 1.0 | 0.00 | 0.00 | 0.00 | 95 | 1018.7 |
| 20260508090543 | 56 | 0 | 0.0 | 0.0 | 0.00 | 0.00 | 0.00 | 95 | 1018.5 |
| 20260508090039 | 56 | 0 | 0.0 | 0.0 | 0.00 | 0.00 | 0.00 | 95 | 1018.2 |
| 20260508085536 | 56 | 0 | 0.0 | 1.0 | 0.00 | 0.00 | 0.00 | 95 | 1018.1 |
| 20260508085033 | 55 | 14 | 0.0 | 1.0 | 0.00 | 0.00 | 0.00 | 94 | 1018.2 |
| 20260508084530 | 56 | 0 | 0.0 | 0.0 | 0.00 | 0.00 | 0.00 | 94 | 1018.2 |
| 20260508084028 | 56 | 8 | 0.0 | 1.0 | 0.00 | 0.00 | 0.00 | 94 | 1018.1 |
| 20260508083525 | 56 | 0 | 0.0 | 0.0 | 0.00 | 0.00 | 0.00 | 94 | 1018.3 |
| 20260508083021 | 56 | 7 | 0.0 | 1.0 | 0.00 | 0.00 | 0.00 | 94 | 1018.0 |
| 20260508082517 | 56 | 0 | 0.0 | 1.0 | 0.00 | 0.00 | 0.00 | 93 | 1018.0 |
| 20260508082015 | 56 | 66 | 0.0 | 1.0 | 0.00 | 0.00 | 0.00 | 93 | 1018.3 |
| 20260508081512 | 56 | 81 | 0.0 | 2.0 | 0.00 | 0.00 | 0.00 | 92 | 1018.0 |
| 20260508081008 | 56 | 82 | 0.0 | 0.0 | 0.00 | 0.00 | 0.00 | 92 | 1017.9 |
| 20260508080506 | 56 | 82 | 0.0 | 0.0 | 0.00 | 0.00 | 0.00 | 92 | 1017.8 |
| 20260508080003 | 56 | 82 | 0.0 | 0.0 | 0.00 | 0.00 | 0.00 | 92 | 1018.1 |
| 20260508075459 | 57 | 82 | 0.0 | 1.0 | 0.00 | 0.00 | 0.00 | 92 | 1017.9 |
| 20260508074957 | 56 | 82 | 0.0 | 2.0 | 0.00 | 0.00 | 0.00 | 91 | 1018.1 |
| 20260508074455 | 56 | 81 | 0.0 | 0.0 | 0.00 | 0.00 | 0.00 | 91 | 1018.2 |
| 20260508073951 | 57 | 75 | 0.0 | 1.0 | 0.00 | 0.00 | 0.00 | 91 | 1018.0 |
| 20260508073449 | 57 | 74 | 0.0 | 1.0 | 0.00 | 0.00 | 0.00 | 91 | 1018.1 |
| 20260508072946 | 57 | 29 | 0.0 | 1.0 | 0.00 | 0.00 | 0.00 | 91 | 1018.2 |
| 20260508072442 | 57 | 99 | 0.0 | 1.0 | 0.00 | 0.00 | 0.00 | 90 | 1018.1 |
| 20260508071939 | 57 | 90 | 0.0 | 1.0 | 0.00 | 0.00 | 0.00 | 90 | 1018.3 |
| 20260508071438 | 57 | 126 | 0.0 | 1.0 | 0.00 | 0.00 | 0.00 | 89 | 1017.9 |
| 20260508070935 | 57 | 90 | 0.0 | 1.0 | 0.00 | 0.00 | 0.00 | 89 | 1018.1 |
| 20260508070432 | 57 | 90 | 0.0 | 0.0 | 0.00 | 0.00 | 0.00 | 89 | 1018.1 |
| 20260508065930 | 57 | 90 | 0.0 | 0.0 | 0.00 | 0.00 | 0.00 | 88 | 1018.3 |
| 20260508065428 | 57 | 82 | 0.0 | 0.0 | 0.00 | 0.00 | 0.00 | 88 | 1018.1 |
| 20260508064926 | 58 | 209 | 0.0 | 0.0 | 0.00 | 0.00 | 0.00 | 88 | 1018.1 |
| 20260508064423 | 58 | 215 | 0.0 | 0.0 | 0.00 | 0.00 | 0.00 | 88 | 1017.8 |
| 20260508063921 | 58 | 215 | 0.0 | 1.0 | 0.00 | 0.00 | 0.00 | 87 | 1018.1 |
| 20260508063418 | 58 | 262 | 0.0 | 1.0 | 0.00 | 0.00 | 0.00 | 87 | 1018.1 |
| 20260508062915 | 58 | 254 | 0.0 | 0.0 | 0.00 | 0.00 | 0.00 | 86 | 1017.9 |
| 20260508062413 | 58 | 254 | 0.0 | 1.0 | 0.00 | 0.00 | 0.00 | 86 | 1017.8 |
| 20260508061909 | 58 | 253 | 0.0 | 2.0 | 0.00 | 0.00 | 0.00 | 86 | 1017.9 |
| 20260508061407 | 58 | 270 | 0.0 | 1.0 | 0.00 | 0.00 | 0.00 | 86 | 1018.0 |
| 20260508060903 | 58 | 352 | 0.0 | 0.0 | 0.00 | 0.00 | 0.00 | 86 | 1018.1 |
| 20260508060401 | 58 | 90 | 0.0 | 0.0 | 0.00 | 0.00 | 0.00 | 85 | 1018.1 |
| 20260508055901 | 59 | 90 | 0.0 | 1.0 | 0.00 | 0.00 | 0.00 | 85 | 1018.4 |
| 20260508055359 | 59 | 188 | 0.0 | 0.0 | 0.00 | 0.00 | 0.00 | 85 | 1018.3 |
| 20260508054855 | 59 | 81 | 0.0 | 0.0 | 0.00 | 0.00 | 0.00 | 84 | 1018.2 |
| 20260508054353 | 59 | 294 | 0.0 | 0.0 | 0.00 | 0.00 | 0.00 | 84 | 1018.2 |
| 20260508053849 | 60 | 75 | 0.0 | 0.0 | 0.00 | 0.00 | 0.00 | 83 | 1018.0 |
| 20260508053347 | 59 | 74 | 0.0 | 2.0 | 0.00 | 0.00 | 0.00 | 83 | 1018.0 |
| 20260508052844 | 60 | 99 | 0.0 | 0.0 | 0.00 | 0.00 | 0.00 | 83 | 1018.3 |
| 20260508052342 | 60 | 99 | 0.0 | 0.0 | 0.00 | 0.00 | 0.00 | 82 | 1018.0 |
| 20260508051837 | 60 | 99 | 0.0 | 0.0 | 0.00 | 0.00 | 0.00 | 81 | 1018.0 |
| 20260508051333 | 60 | 77 | 2.0 | 2.0 | 0.00 | 0.00 | 0.00 | 81 | 1018.0 |
| 20260508050829 | 61 | 90 | 0.0 | 1.0 | 0.00 | 0.00 | 0.00 | 80 | 1018.2 |
| 20260508050327 | 61 | 0 | 0.0 | 0.0 | 0.00 | 0.00 | 0.00 | 79 | 1018.0 |
| 20260508045822 | 61 | 79 | 2.0 | 2.0 | 0.00 | 0.00 | 0.00 | 79 | 1017.9 |
| 20260508045320 | 62 | 195 | 0.0 | 1.0 | 0.00 | 0.00 | 0.00 | 78 | 1017.8 |
| 20260508044818 | 62 | 166 | 1.0 | 1.0 | 0.00 | 0.00 | 0.00 | 78 | 1017.9 |
| 20260508044314 | 62 | 103 | 1.0 | 1.0 | 0.00 | 0.00 | 0.00 | 77 | 1018.0 |
| 20260508043810 | 63 | 78 | 2.0 | 2.0 | 0.00 | 0.00 | 0.00 | 76 | 1017.9 |
| 20260508043308 | 62 | 109 | 0.0 | 2.0 | 0.00 | 0.00 | 0.00 | 77 | 1018.0 |
| 20260508042804 | 63 | 90 | 0.0 | 3.0 | 0.00 | 0.00 | 0.00 | 76 | 1017.7 |
| 20260508042306 | 63 | 14 | 3.0 | 3.0 | 0.00 | 0.00 | 0.00 | 76 | 1017.5 |
| 20260508041758 | 63 | 114 | 2.0 | 2.0 | 0.00 | 0.00 | 0.00 | 76 | 1017.5 |
| 20260508041255 | 63 | 352 | 3.0 | 3.0 | 0.00 | 0.00 | 0.00 | 77 | 1017.5 |
| 20260508040751 | 63 | 139 | 0.0 | 3.0 | 0.00 | 0.00 | 0.00 | 78 | 1017.7 |
| 20260508040249 | 63 | 60 | 0.0 | 2.0 | 0.00 | 0.00 | 0.00 | 78 | 1017.6 |
| 20260508035746 | 64 | 106 | 0.0 | 4.0 | 0.00 | 0.86 | 0.86 | 78 | 1017.7 |
| 20260508035243 | 64 | 139 | 0.0 | 2.0 | 0.00 | 0.86 | 0.86 | 77 | 1017.6 |
| 20260508034740 | 64 | 172 | 0.0 | 2.0 | 0.00 | 0.86 | 0.86 | 77 | 1017.4 |
| 20260508034237 | 64 | 270 | 0.0 | 2.0 | 0.00 | 0.86 | 0.86 | 77 | 1017.6 |
| 20260508033734 | 64 | 257 | 1.0 | 4.0 | 0.00 | 0.86 | 0.86 | 77 | 1017.5 |
| 20260508033232 | 65 | 78 | 0.0 | 3.0 | 0.00 | 0.86 | 0.86 | 77 | 1017.7 |
| 20260508032730 | 65 | 99 | 2.0 | 4.0 | 0.00 | 0.86 | 0.86 | 77 | 1017.6 |
| 20260508032227 | 65 | 180 | 2.0 | 3.0 | 0.00 | 0.86 | 0.86 | 77 | 1017.5 |
| 20260508031723 | 65 | 263 | 1.0 | 3.0 | 0.00 | 0.86 | 0.86 | 77 | 1017.5 |
| 20260508031219 | 65 | 286 | 0.0 | 3.0 | 0.00 | 0.86 | 0.86 | 77 | 1017.8 |
| 20260508030716 | 66 | 90 | 0.0 | 4.0 | 0.00 | 0.86 | 0.86 | 77 | 1017.5 |
| 20260508030214 | 66 | 287 | 3.0 | 5.0 | 0.00 | 0.86 | 0.86 | 76 | 1017.7 |
| 20260508025710 | 66 | 221 | 2.0 | 10.0 | 0.00 | 0.86 | 0.86 | 77 | 1017.3 |
| 20260508025207 | 66 | 254 | 4.0 | 4.0 | 0.00 | 0.86 | 0.86 | 77 | 1017.3 |
| 20260508024703 | 66 | 214 | 4.0 | 4.0 | 0.00 | 0.86 | 0.86 | 77 | 1017.3 |
| 20260508024200 | 67 | 304 | 3.0 | 5.0 | 0.00 | 0.86 | 0.86 | 77 | 1017.2 |
| 20260508023656 | 67 | 99 | 0.0 | 3.0 | 0.00 | 0.86 | 0.86 | 77 | 1017.0 |
| 20260508023154 | 67 | 0 | 0.0 | 4.0 | 0.00 | 0.86 | 0.86 | 77 | 1017.1 |
| 20260508022649 | 67 | 345 | 0.0 | 5.0 | 0.00 | 0.86 | 0.86 | 76 | 1017.2 |
| 20260508022147 | 68 | 255 | 5.0 | 6.0 | 0.00 | 0.86 | 0.86 | 76 | 1017.2 |
| 20260508021643 | 68 | 258 | 0.0 | 7.0 | 0.00 | 0.86 | 0.86 | 76 | 1016.7 |
| 20260508021138 | 68 | 168 | 1.0 | 5.0 | 0.00 | 0.86 | 0.86 | 76 | 1016.8 |
| 20260508020637 | 68 | 263 | 3.0 | 4.0 | 0.00 | 0.86 | 0.86 | 76 | 1016.9 |
| 20260508020134 | 68 | 75 | 0.0 | 8.0 | 0.00 | 0.86 | 0.86 | 76 | 1016.6 |
| 20260508015631 | 69 | 230 | 9.0 | 16.0 | 0.00 | 0.86 | 0.86 | 76 | 1016.3 |
| 20260508015128 | 69 | 350 | 0.0 | 5.0 | 0.00 | 0.86 | 0.86 | 76 | 1016.7 |
| 20260508014624 | 69 | 262 | 5.0 | 5.0 | 0.00 | 0.86 | 0.86 | 77 | 1016.4 |
| 20260508014121 | 69 | 264 | 3.0 | 5.0 | 0.00 | 0.86 | 0.86 | 77 | 1016.4 |
| 20260508013617 | 70 | 240 | 5.0 | 13.0 | 0.00 | 0.86 | 0.86 | 77 | 1016.2 |
| 20260508013114 | 70 | 2 | 0.0 | 9.0 | 0.00 | 0.86 | 0.86 | 79 | 1016.2 |
| 20260508012611 | 70 | 291 | 3.0 | 7.0 | 0.00 | 0.86 | 0.86 | 79 | 1016.0 |
| 20260508012108 | 70 | 57 | 2.0 | 4.0 | 0.00 | 0.86 | 0.86 | 79 | 1015.8 |
| 20260508011607 | 70 | 270 | 4.0 | 7.0 | 0.00 | 0.86 | 0.86 | 78 | 1016.0 |
| 20260508011104 | 71 | 0 | 0.0 | 8.0 | 0.00 | 0.86 | 0.86 | 78 | 1015.6 |
| 20260508010600 | 71 | 297 | 6.0 | 7.0 | 0.00 | 0.86 | 0.86 | 79 | 1015.7 |
| 20260508010058 | 71 | 214 | 4.0 | 6.0 | 0.00 | 0.86 | 0.86 | 79 | 1015.5 |
| 20260508005554 | 71 | 226 | 5.0 | 11.0 | 0.00 | 0.86 | 0.86 | 80 | 1015.2 |
| 20260508005051 | 71 | 289 | 3.0 | 5.0 | 0.00 | 0.86 | 0.86 | 81 | 1015.3 |
| 20260508004547 | 71 | 260 | 3.0 | 9.0 | 0.00 | 0.86 | 0.86 | 80 | 1015.2 |
| 20260508004044 | 71 | 263 | 1.0 | 6.0 | 0.00 | 0.86 | 0.86 | 81 | 1015.1 |
| 20260508003540 | 72 | 194 | 3.0 | 5.0 | 0.00 | 0.86 | 0.86 | 81 | 1014.9 |
| 20260508003038 | 72 | 352 | 0.0 | 5.0 | 0.00 | 0.86 | 0.86 | 80 | 1014.9 |
| 20260508002534 | 72 | 282 | 3.0 | 3.0 | 0.00 | 0.86 | 0.86 | 80 | 1014.7 |
| 20260508002032 | 73 | 203 | 2.0 | 8.0 | 0.00 | 0.86 | 0.86 | 79 | 1014.7 |
| 20260508001527 | 73 | 237 | 3.0 | 7.0 | 0.00 | 0.86 | 0.86 | 78 | 1014.8 |
| 20260508001024 | 73 | 308 | 5.0 | 9.0 | 0.00 | 0.86 | 0.86 | 78 | 1014.5 |
| 20260508000520 | 74 | 277 | 6.0 | 9.0 | 0.00 | 0.86 | 0.86 | 77 | 1014.2 |
| 20260508000017 | 74 | 294 | 6.0 | 8.0 | 0.00 | 0.86 | 0.86 | 77 | 1014.6 |
| 20260507235514 | 74 | 240 | 3.0 | 7.0 | 0.00 | 0.86 | 0.86 | 76 | 1014.2 |
| 20260507235011 | 74 | 253 | 4.0 | 7.0 | 0.00 | 0.86 | 0.86 | 76 | 1014.3 |
| 20260507234507 | 75 | 277 | 4.0 | 10.0 | 0.00 | 0.86 | 0.86 | 75 | 1014.0 |
| 20260507234004 | 75 | 233 | 3.0 | 8.0 | 0.00 | 0.86 | 0.86 | 74 | 1013.8 |
| 20260507233500 | 75 | 252 | 11.0 | 17.0 | 0.00 | 0.86 | 0.86 | 74 | 1014.0 |
| 20260507233000 | 76 | 267 | 6.0 | 9.0 | 0.00 | 0.86 | 0.86 | 74 | 1013.8 |
| 20260507232455 | 77 | 273 | 4.0 | 9.0 | 0.00 | 0.86 | 0.86 | 73 | 1014.0 |
| 20260507231953 | 77 | 225 | 4.0 | 4.0 | 0.00 | 0.86 | 0.86 | 72 | 1013.6 |
| 20260507231449 | 78 | 214 | 4.0 | 6.0 | 0.00 | 0.86 | 0.86 | 71 | 1013.9 |
| 20260507230946 | 78 | 245 | 2.0 | 9.0 | 0.00 | 0.86 | 0.86 | 73 | 1013.9 |
| 20260507230443 | 77 | 301 | 4.0 | 11.0 | 0.00 | 0.86 | 0.86 | 73 | 1013.9 |
| 20260507225938 | 77 | 295 | 6.0 | 8.0 | 0.00 | 0.86 | 0.86 | 72 | 1013.6 |
| 20260507225434 | 78 | 254 | 2.0 | 6.0 | 0.00 | 0.86 | 0.86 | 70 | 1013.5 |
| 20260507224931 | 78 | 244 | 7.0 | 11.0 | 0.00 | 0.86 | 0.86 | 71 | 1013.8 |
| 20260507224427 | 78 | 291 | 0.0 | 10.0 | 0.00 | 0.86 | 0.86 | 73 | 1013.8 |
| 20260507223924 | 78 | 229 | 3.0 | 11.0 | 0.00 | 0.86 | 0.86 | 72 | 1013.8 |
| 20260507223420 | 78 | 290 | 3.0 | 15.0 | 0.00 | 0.86 | 0.86 | 71 | 1013.7 |
| 20260507222917 | 79 | 270 | 4.0 | 13.0 | 0.00 | 0.86 | 0.86 | 72 | 1013.8 |
| 20260507222414 | 79 | 262 | 5.0 | 7.0 | 0.00 | 0.86 | 0.86 | 72 | 1013.8 |
| 20260507221910 | 79 | 290 | 0.0 | 9.0 | 0.00 | 0.86 | 0.86 | 73 | 1013.6 |
| 20260507221407 | 79 | 268 | 6.0 | 11.0 | 0.00 | 0.86 | 0.86 | 73 | 1013.9 |
| 20260507220902 | 78 | 263 | 3.0 | 11.0 | 0.00 | 0.86 | 0.86 | 76 | 1013.7 |
| 20260507220401 | 77 | 247 | 6.0 | 11.0 | 0.00 | 0.86 | 0.86 | 78 | 1013.8 |
| 20260507215857 | 77 | 213 | 3.0 | 7.0 | 0.00 | 0.86 | 0.86 | 78 | 1013.8 |
| 20260507215354 | 77 | 275 | 0.0 | 10.0 | 0.00 | 0.86 | 0.86 | 78 | 1013.4 |
| 20260507214851 | 78 | 285 | 3.0 | 11.0 | 0.00 | 0.86 | 0.86 | 76 | 1013.8 |
| 20260507214349 | 78 | 235 | 10.0 | 13.0 | 0.00 | 0.86 | 0.86 | 76 | 1013.7 |
| 20260507213844 | 78 | 240 | 5.0 | 13.0 | 0.00 | 0.86 | 0.86 | 75 | 1013.8 |
| 20260507213341 | 79 | 219 | 5.0 | 10.0 | 0.00 | 0.86 | 0.86 | 74 | 1013.6 |
| 20260507212838 | 78 | 254 | 7.0 | 10.0 | 0.00 | 0.86 | 0.86 | 75 | 1013.5 |
| 20260507212334 | 79 | 251 | 7.0 | 9.0 | 0.00 | 0.86 | 0.86 | 75 | 1013.4 |
| 20260507211830 | 79 | 235 | 6.0 | 12.0 | 0.00 | 0.86 | 0.86 | 77 | 1013.7 |
| 20260507211327 | 78 | 292 | 5.0 | 9.0 | 0.00 | 0.86 | 0.86 | 77 | 1013.7 |
| 20260507210824 | 78 | 276 | 2.0 | 5.0 | 0.00 | 0.86 | 0.86 | 77 | 1013.4 |
| 20260507210321 | 79 | 270 | 5.0 | 10.0 | 0.00 | 0.86 | 0.86 | 76 | 1013.4 |
| 20260507205817 | 79 | 287 | 3.0 | 6.0 | 0.00 | 0.86 | 0.86 | 77 | 1013.4 |
| 20260507205315 | 77 | 250 | 2.0 | 5.0 | 0.00 | 0.86 | 0.86 | 81 | 1013.5 |
| 20260507204810 | 76 | 252 | 3.0 | 8.0 | 0.00 | 0.86 | 0.86 | 81 | 1013.6 |
| 20260507204308 | 77 | 228 | 7.0 | 8.0 | 0.00 | 0.86 | 0.86 | 80 | 1013.7 |
| 20260507203806 | 78 | 258 | 4.0 | 8.0 | 0.00 | 0.86 | 0.86 | 79 | 1013.8 |
| 20260507203304 | 76 | 243 | 5.0 | 5.0 | 0.00 | 0.86 | 0.86 | 82 | 1013.6 |
| 20260507202759 | 75 | 246 | 3.0 | 5.0 | 0.00 | 0.86 | 0.86 | 83 | 1013.7 |
| 20260507202255 | 75 | 256 | 4.0 | 7.0 | 0.00 | 0.86 | 0.86 | 83 | 1013.7 |
| 20260507201750 | 75 | 267 | 0.0 | 6.0 | 0.00 | 0.86 | 0.86 | 84 | 1013.9 |
| 20260507201247 | 75 | 234 | 4.0 | 6.0 | 0.00 | 0.86 | 0.86 | 83 | 1013.8 |
| 20260507200744 | 75 | 232 | 4.0 | 6.0 | 0.00 | 0.86 | 0.86 | 83 | 1014.0 |
| 20260507200239 | 75 | 267 | 3.0 | 6.0 | 0.00 | 0.86 | 0.86 | 83 | 1013.9 |
| 20260507195736 | 76 | 246 | 7.0 | 7.0 | 0.00 | 0.86 | 0.86 | 83 | 1014.1 |
| 20260507195233 | 76 | 292 | 5.0 | 8.0 | 0.00 | 0.86 | 0.86 | 82 | 1014.1 |
| 20260507194731 | 76 | 232 | 5.0 | 7.0 | 0.00 | 0.86 | 0.86 | 84 | 1013.9 |
| 20260507194226 | 76 | 255 | 5.0 | 6.0 | 0.00 | 0.86 | 0.86 | 84 | 1014.1 |
| 20260507193723 | 75 | 315 | 3.0 | 7.0 | 0.00 | 0.86 | 0.86 | 84 | 1014.0 |
| 20260507193220 | 75 | 236 | 5.0 | 9.0 | 0.00 | 0.86 | 0.86 | 83 | 1013.9 |
| 20260507192716 | 75 | 321 | 5.0 | 10.0 | 0.00 | 0.86 | 0.86 | 82 | 1014.2 |
| 20260507192213 | 76 | 270 | 4.0 | 13.0 | 0.00 | 0.86 | 0.86 | 83 | 1013.8 |
| 20260507191709 | 76 | 229 | 8.0 | 15.0 | 0.00 | 0.86 | 0.86 | 82 | 1013.9 |
| 20260507191206 | 77 | 246 | 7.0 | 14.0 | 0.00 | 0.86 | 0.86 | 80 | 1014.0 |
| 20260507190703 | 78 | 234 | 5.0 | 8.0 | 0.00 | 0.86 | 0.86 | 82 | 1013.9 |
| 20260507190202 | 77 | 227 | 5.0 | 10.0 | 0.00 | 0.86 | 0.86 | 82 | 1014.0 |
| 20260507185700 | 76 | 254 | 4.0 | 6.0 | 0.00 | 0.86 | 0.86 | 83 | 1014.4 |
| 20260507185157 | 77 | 276 | 3.0 | 7.0 | 0.00 | 0.86 | 0.86 | 84 | 1014.0 |
| 20260507184654 | 76 | 285 | 3.0 | 10.0 | 0.00 | 0.86 | 0.86 | 86 | 1014.1 |
| 20260507184152 | 75 | 257 | 4.0 | 8.0 | 0.00 | 0.86 | 0.86 | 85 | 1013.8 |
| 20260507183648 | 74 | 264 | 8.0 | 9.0 | 0.00 | 0.86 | 0.86 | 86 | 1014.2 |
| 20260507183145 | 73 | 270 | 3.0 | 6.0 | 0.00 | 0.86 | 0.86 | 90 | 1014.0 |
| 20260507182643 | 73 | 231 | 3.0 | 6.0 | 0.00 | 0.86 | 0.86 | 94 | 1013.6 |
| 20260507182137 | 71 | 247 | 0.0 | 6.0 | 0.00 | 0.86 | 0.86 | 96 | 1013.8 |
| 20260507181634 | 71 | 246 | 1.0 | 7.0 | 0.00 | 0.86 | 0.86 | 99 | 1014.1 |
| 20260507181131 | 71 | 232 | 2.0 | 4.0 | 0.00 | 0.86 | 0.86 | 99 | 1013.9 |
| 20260507180627 | 70 | 273 | 3.0 | 5.0 | 0.00 | 0.86 | 0.86 | 99 | 1014.4 |
| 20260507180124 | 70 | 245 | 5.0 | 7.0 | 0.00 | 0.86 | 0.86 | 99 | 1014.2 |
| 20260507175620 | 71 | 188 | 0.0 | 2.0 | 0.00 | 0.86 | 0.86 | 99 | 1014.1 |
| 20260507175117 | 70 | 306 | 1.0 | 5.0 | 0.00 | 0.86 | 0.86 | 99 | 1014.0 |
| 20260507174614 | 69 | 199 | 2.0 | 5.0 | 0.00 | 0.86 | 0.86 | 99 | 1014.2 |
| 20260507174112 | 69 | 236 | 2.0 | 5.0 | 0.00 | 0.86 | 0.86 | 99 | 1014.1 |
| 20260507173609 | 70 | 260 | 2.0 | 5.0 | 0.00 | 0.86 | 0.86 | 99 | 1014.2 |
| 20260507173106 | 69 | 243 | 2.0 | 4.0 | 0.00 | 0.86 | 0.86 | 99 | 1014.2 |
| 20260507172602 | 69 | 262 | 2.0 | 3.0 | 0.00 | 0.86 | 0.86 | 99 | 1014.0 |
| 20260507172100 | 68 | 276 | 1.0 | 3.0 | 0.00 | 0.86 | 0.86 | 99 | 1014.0 |
| 20260507171554 | 68 | 251 | 2.0 | 3.0 | 0.00 | 0.86 | 0.86 | 99 | 1014.5 |
| 20260507171052 | 68 | 275 | 2.0 | 4.0 | 0.00 | 0.86 | 0.86 | 99 | 1014.3 |
| 20260507170549 | 68 | 188 | 0.0 | 2.0 | 0.00 | 0.86 | 0.86 | 99 | 1014.2 |
| 20260507170046 | 68 | 216 | 3.0 | 3.0 | 0.00 | 0.86 | 0.86 | 99 | 1014.2 |
| 20260507165541 | 68 | 192 | 2.0 | 4.0 | 0.00 | 0.86 | 0.86 | 99 | 1013.6 |
| 20260507165038 | 68 | 194 | 1.0 | 3.0 | 0.02 | 0.86 | 0.86 | 99 | 1013.8 |
| 20260507164534 | 68 | 203 | 0.0 | 1.0 | 0.02 | 0.86 | 0.86 | 99 | 1013.8 |
| 20260507164031 | 68 | 188 | 0.0 | 3.0 | 0.02 | 0.86 | 0.86 | 99 | 1014.3 |
| 20260507163528 | 68 | 270 | 0.0 | 0.0 | 0.05 | 0.86 | 0.86 | 99 | 1014.6 |
| 20260507163026 | 68 | 145 | 0.0 | 3.0 | 0.05 | 0.85 | 0.85 | 99 | 1014.3 |
| 20260507162521 | 68 | 270 | 0.0 | 1.0 | 0.02 | 0.85 | 0.85 | 99 | 1014.5 |
| 20260507162018 | 68 | 233 | 2.0 | 3.0 | 0.00 | 0.85 | 0.85 | 99 | 1014.8 |
| 20260507161514 | 68 | 286 | 0.0 | 1.0 | 0.00 | 0.85 | 0.85 | 99 | 1014.9 |
| 20260507161011 | 68 | 90 | 0.0 | 0.0 | 0.12 | 0.85 | 0.85 | 99 | 1014.9 |
| 20260507160507 | 68 | 90 | 0.0 | 4.0 | 0.21 | 0.85 | 0.85 | 99 | 1015.2 |
| 20260507160004 | 69 | 275 | 4.0 | 4.0 | 0.21 | 0.82 | 0.82 | 99 | 1015.1 |
| 20260507155459 | 69 | 286 | 0.0 | 4.0 | 0.17 | 0.80 | 0.80 | 99 | 1015.4 |
| 20260507154956 | 69 | 236 | 3.0 | 3.0 | 0.14 | 0.78 | 0.78 | 99 | 1015.3 |
| 20260507154453 | 69 | 287 | 0.0 | 0.0 | 0.07 | 0.77 | 0.77 | 99 | 1015.3 |
| 20260507153950 | 68 | 257 | 0.0 | 2.0 | 0.00 | 0.76 | 0.76 | 99 | 1015.4 |
| 20260507153447 | 69 | 252 | 3.0 | 3.0 | 0.00 | 0.76 | 0.76 | 99 | 1015.3 |
| 20260507152943 | 68 | 294 | 1.0 | 3.0 | 0.00 | 0.76 | 0.76 | 99 | 1015.0 |
| 20260507152439 | 68 | 240 | 0.0 | 3.0 | 0.00 | 0.76 | 0.76 | 99 | 1014.7 |
| 20260507151935 | 68 | 240 | 1.0 | 4.0 | 0.00 | 0.76 | 0.76 | 99 | 1015.0 |
| 20260507151432 | 68 | 240 | 3.0 | 4.0 | 0.02 | 0.76 | 0.76 | 99 | 1014.5 |
| 20260507150929 | 68 | 263 | 1.0 | 3.0 | 0.05 | 0.76 | 0.76 | 99 | 1014.7 |
| 20260507150426 | 68 | 194 | 0.0 | 3.0 | 0.05 | 0.75 | 0.75 | 99 | 1014.5 |
| 20260507145922 | 68 | 208 | 2.0 | 3.0 | 0.14 | 0.75 | 0.75 | 99 | 1014.5 |
| 20260507145418 | 68 | 300 | 0.0 | 3.0 | 0.14 | 0.74 | 0.74 | 99 | 1014.4 |
| 20260507144915 | 68 | 255 | 0.0 | 2.0 | 0.38 | 0.73 | 0.73 | 99 | 1014.6 |
| 20260507144412 | 68 | 249 | 6.0 | 6.0 | 1.23 | 0.72 | 0.72 | 99 | 1014.7 |
| 20260507143909 | 69 | 286 | 3.0 | 5.0 | 1.13 | 0.63 | 0.63 | 99 | 1014.9 |
| 20260507143406 | 68 | 278 | 8.0 | 9.0 | 0.31 | 0.47 | 0.47 | 99 | 1014.7 |
| 20260507142903 | 68 | 264 | 5.0 | 11.0 | 0.09 | 0.44 | 0.44 | 99 | 1014.6 |
| 20260507142358 | 69 | 263 | 5.0 | 9.0 | 0.17 | 0.42 | 0.42 | 99 | 1014.2 |
| 20260507141856 | 69 | 250 | 6.0 | 9.0 | 0.21 | 0.42 | 0.42 | 99 | 1014.2 |
| 20260507141352 | 69 | 257 | 5.0 | 15.0 | 0.05 | 0.39 | 0.39 | 99 | 1014.0 |
| 20260507140849 | 69 | 246 | 3.0 | 10.0 | 0.02 | 0.39 | 0.39 | 99 | 1014.1 |
| 20260507140345 | 69 | 260 | 5.0 | 8.0 | 0.02 | 0.39 | 0.39 | 99 | 1014.4 |
| 20260507135843 | 69 | 225 | 5.0 | 12.0 | 0.14 | 0.38 | 0.38 | 99 | 1014.3 |